This is the latest recevied weather packets stored in our database for station/object G6LTT-13. If no packets are shown the sender has not sent any weather packets the latest 10 day(s).
| Time | Temp. | Humidity | Pressure | Rain* | Wind** | Luminosity | Snow |
|---|---|---|---|---|---|---|---|
| 1787880107 | 16.67° C | 84% | 1035.2 hPa | 0 mm | - | - | - |
| 1787878307 | 16.67° C | 83% | 1035.2 hPa | 0 mm | - | - | - |
| 1787876507 | 17.22° C | 82% | 1034.8 hPa | 0 mm | - | - | - |
| 1787874707 | 17.22° C | 81% | 1035.1 hPa | 0 mm | - | - | - |
| 1787872907 | 17.78° C | 81% | 1035.3 hPa | 0 mm | - | - | - |
| 1787871107 | 18.33° C | 80% | 1035.5 hPa | 0 mm | - | - | - |
| 1787869307 | 18.33° C | 78% | 1035.9 hPa | 0 mm | - | - | - |
| 1787867507 | 18.33° C | 76% | 1036.2 hPa | 0 mm | - | - | - |
| 1787865707 | 18.89° C | 73% | 1036.1 hPa | 0 mm | - | - | - |
| 1787863907 | 19.44° C | 71% | 1036.2 hPa | 0 mm | - | - | - |
| 1787862107 | 19.44° C | 69% | 1035.8 hPa | 0 mm | - | - | - |
| 1787860308 | 20° C | 68% | 1035.7 hPa | 0 mm | - | - | - |
| 1787858507 | 20.56° C | 64% | 1035.6 hPa | 0 mm | - | - | - |
| 1787856707 | 21.11° C | 66% | 1035.4 hPa | 0 mm | - | - | - |
| 1787854907 | 21.67° C | 62% | 1035.5 hPa | 0 mm | - | - | - |
| 1787853107 | 22.22° C | 65% | 1035.5 hPa | 0 mm | - | - | - |
| 1787851307 | 22.78° C | 67% | 1035.3 hPa | 0 mm | - | - | - |
| 1787849507 | 23.33° C | 64% | 1035.4 hPa | 0 mm | - | - | - |
| 1787847707 | 24.44° C | 63% | 1035.3 hPa | 0 mm | - | - | - |
| 1787845907 | 23.89° C | 65% | 1035.6 hPa | 0 mm | - | - | - |
| 1787844107 | 23.33° C | 68% | 1035.9 hPa | 0 mm | - | - | - |
| 1787842307 | 23.89° C | 76% | 1035.8 hPa | 0.25 mm | - | - | - |
| 1787840507 | 22.78° C | 78% | 1036.1 hPa | 0.25 mm | - | - | - |
| 1787838707 | 22.22° C | 79% | 1036 hPa | 0 mm | - | - | - |
| 1787836907 | 22.22° C | 77% | 1036.2 hPa | 0 mm | - | - | - |
* Rain latest hour (hover to see other rain measurements)
** Current wind speed in m/s (hover to see current wind gust speed)